IRIDIUM 57 [-] (25273 NORAD) Tracking and Keplerian Element Data

This shows tracking and keplerian element data for the satellite.

Feedback or suggestion? Click here.




ElementValue
Catalog25273
NameIRIDIUM 57 [-]
Epoch Orbit8405
Epoch Day348.78463253
Epoch Year2018
RAAN59.2861
Inclination86.3981
Eccentricity0.0002121
Argument of Perigee91.127
Mean Anonmoly269.0169
Mean Motion14.34323062
Decay Rate2E-07
L11 25273U 98019B 18348.78463253 .00000020 00000-0 20221-6 0 9993
L22 25273 86.3981 59.2861 0002121 91.1270 269.0169 14.34323062 84051

Live tracking and technical data element details for IRIDIUM 57 [-] (NORAD 25273). IRIDIUM 57 [-] can be tracked NOW for your location showing map with azimuth and elevation plus other details from your city location.

Track the satellite on the map from your city or location and see movement details for azimuth, elevation, latitude, longitude, range, height, and movement on the map or in text.







IsCatalogInMostPopularTable: catalog: 25273, numindb: 49
Update: records affected: 1



GetName: 25273 IRIDIUM 57 [-]

Hit Count: updated at: Sat, 15 Dec 2018 18:57:39 GMT